Year,Month,Day,Hour,Minute,Value (Times are PST for temperature in C)
2017,06,22,00,00,8.90
2017,06,22,00,01,8.90
2017,06,22,00,02,8.90
2017,06,22,00,03,8.90
2017,06,22,00,04,8.90
2017,06,22,00,05,9.00
2017,06,22,00,06,8.90
2017,06,22,00,07,8.90
2017,06,22,00,08,8.90
2017,06,22,00,09,8.90
2017,06,22,00,10,8.90
2017,06,22,00,11,8.90
2017,06,22,00,12,8.90
2017,06,22,00,13,8.90
2017,06,22,00,14,8.90
2017,06,22,00,15,8.90
2017,06,22,00,16,8.90
2017,06,22,00,17,8.90
2017,06,22,00,18,8.90
2017,06,22,00,19,8.80
2017,06,22,00,20,8.80
2017,06,22,00,21,8.80
2017,06,22,00,22,8.80
2017,06,22,00,23,8.80
2017,06,22,00,24,8.80
2017,06,22,00,25,8.80
2017,06,22,00,26,8.70
2017,06,22,00,27,8.70
2017,06,22,00,28,8.70
2017,06,22,00,29,8.70
2017,06,22,00,30,8.70
2017,06,22,00,31,8.70
2017,06,22,00,32,8.70
2017,06,22,00,33,8.70
2017,06,22,00,34,8.70
2017,06,22,00,35,8.70
2017,06,22,00,36,8.60
2017,06,22,00,37,8.60
2017,06,22,00,38,8.60
2017,06,22,00,39,8.60
2017,06,22,00,40,8.60
2017,06,22,00,41,8.60
2017,06,22,00,42,8.60
2017,06,22,00,43,8.60
2017,06,22,00,44,8.60
2017,06,22,00,45,8.60
2017,06,22,00,46,8.60
2017,06,22,00,47,8.60
2017,06,22,00,48,8.50
2017,06,22,00,49,8.50
2017,06,22,00,50,8.50
2017,06,22,00,51,8.50
2017,06,22,00,52,8.50
2017,06,22,00,53,8.50
2017,06,22,00,54,8.50
2017,06,22,00,55,8.50
2017,06,22,00,56,8.50
2017,06,22,00,57,8.50
2017,06,22,00,58,8.50
2017,06,22,00,59,8.60
2017,06,22,01,00,8.60
2017,06,22,01,01,8.60
2017,06,22,01,02,8.60
2017,06,22,01,03,8.60
2017,06,22,01,04,8.60
2017,06,22,01,05,8.60
2017,06,22,01,06,8.60
2017,06,22,01,07,8.60
2017,06,22,01,08,8.60
2017,06,22,01,09,8.60
2017,06,22,01,10,8.60
2017,06,22,01,11,8.60
2017,06,22,01,12,8.60
2017,06,22,01,13,8.60
2017,06,22,01,14,8.50
2017,06,22,01,15,8.50
2017,06,22,01,16,8.50
2017,06,22,01,17,8.50
2017,06,22,01,18,8.50
2017,06,22,01,19,8.50
2017,06,22,01,20,8.50
2017,06,22,01,21,8.50
2017,06,22,01,22,8.50
2017,06,22,01,23,8.50
2017,06,22,01,24,8.50
2017,06,22,01,25,8.50
2017,06,22,01,26,8.40
2017,06,22,01,27,8.40
2017,06,22,01,28,8.40
2017,06,22,01,29,8.40
2017,06,22,01,30,8.40
2017,06,22,01,31,8.50
2017,06,22,01,32,8.40
2017,06,22,01,33,8.40
2017,06,22,01,34,8.40
2017,06,22,01,35,8.40
2017,06,22,01,36,8.40
2017,06,22,01,37,8.40
2017,06,22,01,38,8.40
2017,06,22,01,39,8.30
2017,06,22,01,40,8.30
2017,06,22,01,41,8.30
2017,06,22,01,42,8.30
2017,06,22,01,43,8.30
2017,06,22,01,44,8.30
2017,06,22,01,45,8.30
2017,06,22,01,46,8.30
2017,06,22,01,47,8.30
2017,06,22,01,48,8.30
2017,06,22,01,49,8.30
2017,06,22,01,50,8.30
2017,06,22,01,51,8.30
2017,06,22,01,52,8.30
2017,06,22,01,53,8.30
2017,06,22,01,54,8.30
2017,06,22,01,55,8.30
2017,06,22,01,56,8.30
2017,06,22,01,57,8.30
2017,06,22,01,58,8.30
2017,06,22,01,59,8.30
2017,06,22,02,00,8.30
2017,06,22,02,01,8.20
2017,06,22,02,02,8.20
2017,06,22,02,03,8.20
2017,06,22,02,04,8.20
2017,06,22,02,05,8.10
2017,06,22,02,06,8.10
2017,06,22,02,07,8.10
2017,06,22,02,08,8.10
2017,06,22,02,09,8.10
2017,06,22,02,10,8.10
2017,06,22,02,11,8.10
2017,06,22,02,12,8.10
2017,06,22,02,13,8.00
2017,06,22,02,14,8.00
2017,06,22,02,15,8.00
2017,06,22,02,16,8.00
2017,06,22,02,17,8.00
2017,06,22,02,18,8.00
2017,06,22,02,19,8.00
2017,06,22,02,20,7.90
2017,06,22,02,21,7.90
2017,06,22,02,22,7.90
2017,06,22,02,23,7.90
2017,06,22,02,24,7.90
2017,06,22,02,25,7.80
2017,06,22,02,26,7.80
2017,06,22,02,27,7.80
2017,06,22,02,28,7.80
2017,06,22,02,29,7.80
2017,06,22,02,30,7.80
2017,06,22,02,31,7.90
2017,06,22,02,32,7.90
2017,06,22,02,33,7.90
2017,06,22,02,34,7.90
2017,06,22,02,35,7.90
2017,06,22,02,36,7.90
2017,06,22,02,37,7.90
2017,06,22,02,38,7.90
2017,06,22,02,39,7.90
2017,06,22,02,40,7.90
2017,06,22,02,41,7.90
2017,06,22,02,42,7.90
2017,06,22,02,43,7.90
2017,06,22,02,44,7.80
2017,06,22,02,45,7.80
2017,06,22,02,46,7.80
2017,06,22,02,47,7.80
2017,06,22,02,48,7.80
2017,06,22,02,49,7.80
2017,06,22,02,50,7.80
2017,06,22,02,51,7.80
2017,06,22,02,52,7.80
2017,06,22,02,53,7.80
2017,06,22,02,54,7.80
2017,06,22,02,55,7.80
2017,06,22,02,56,7.80
2017,06,22,02,57,7.80
2017,06,22,02,58,7.80
2017,06,22,02,59,7.90
2017,06,22,03,00,7.90
2017,06,22,03,01,7.90
2017,06,22,03,02,7.80
2017,06,22,03,03,7.80
2017,06,22,03,04,7.80
2017,06,22,03,05,7.80
2017,06,22,03,06,7.80
2017,06,22,03,07,7.80
2017,06,22,03,08,7.80
2017,06,22,03,09,7.80
2017,06,22,03,10,7.90
2017,06,22,03,11,8.00
2017,06,22,03,12,8.00
2017,06,22,03,13,8.00
2017,06,22,03,14,8.00
2017,06,22,03,15,8.00
2017,06,22,03,16,8.00
2017,06,22,03,17,8.00
2017,06,22,03,18,8.00
2017,06,22,03,19,8.00
2017,06,22,03,20,8.00
2017,06,22,03,21,7.90
2017,06,22,03,22,7.90
2017,06,22,03,23,7.90
2017,06,22,03,24,7.90
2017,06,22,03,25,7.80
2017,06,22,03,26,7.80
2017,06,22,03,27,7.80
2017,06,22,03,28,7.80
2017,06,22,03,29,7.80
2017,06,22,03,30,7.80
2017,06,22,03,31,7.80
2017,06,22,03,32,7.80
2017,06,22,03,33,7.70
2017,06,22,03,34,7.70
2017,06,22,03,35,7.70
2017,06,22,03,36,7.70
2017,06,22,03,37,7.70
2017,06,22,03,38,7.70
2017,06,22,03,39,7.70
2017,06,22,03,40,7.70
2017,06,22,03,41,7.70
2017,06,22,03,42,7.70
2017,06,22,03,43,7.70
2017,06,22,03,44,7.70
2017,06,22,03,45,7.70
2017,06,22,03,46,7.80
2017,06,22,03,47,7.80
2017,06,22,03,48,7.80
2017,06,22,03,49,7.80
2017,06,22,03,50,7.80
2017,06,22,03,51,7.80
2017,06,22,03,52,7.80
2017,06,22,03,53,7.80
2017,06,22,03,54,7.80
2017,06,22,03,55,7.80
2017,06,22,03,56,7.80
2017,06,22,03,57,7.80
2017,06,22,03,58,7.80
2017,06,22,03,59,7.80
2017,06,22,04,00,7.80
2017,06,22,04,01,7.80
2017,06,22,04,02,7.80
2017,06,22,04,03,7.80
2017,06,22,04,04,7.80
2017,06,22,04,05,7.70
2017,06,22,04,06,7.70
2017,06,22,04,07,7.70
2017,06,22,04,08,7.70
2017,06,22,04,09,7.70
2017,06,22,04,10,7.70
2017,06,22,04,11,7.60
2017,06,22,04,12,7.60
2017,06,22,04,13,7.60
2017,06,22,04,14,7.60
2017,06,22,04,15,7.60
2017,06,22,04,16,7.60
2017,06,22,04,17,7.60
2017,06,22,04,18,7.60
2017,06,22,04,19,7.60
2017,06,22,04,20,7.60
2017,06,22,04,21,7.50
2017,06,22,04,22,7.50
2017,06,22,04,23,7.50
2017,06,22,04,24,7.50
2017,06,22,04,25,7.50
2017,06,22,04,26,7.40
2017,06,22,04,27,7.50
2017,06,22,04,28,7.50
2017,06,22,04,29,7.50
2017,06,22,04,30,7.50
2017,06,22,04,31,7.50
2017,06,22,04,32,7.40
2017,06,22,04,33,7.40
2017,06,22,04,34,7.40
2017,06,22,04,35,7.40
2017,06,22,04,36,7.50
2017,06,22,04,37,7.50
2017,06,22,04,38,7.40
2017,06,22,04,39,7.40
2017,06,22,04,40,7.40
2017,06,22,04,41,7.40
2017,06,22,04,42,7.40
2017,06,22,04,43,7.40
2017,06,22,04,44,7.30
2017,06,22,04,45,7.30
2017,06,22,04,46,7.30
2017,06,22,04,47,7.30
2017,06,22,04,48,7.30
2017,06,22,04,49,7.30
2017,06,22,04,50,7.30
2017,06,22,04,51,7.20
2017,06,22,04,52,7.20
2017,06,22,04,53,7.30
2017,06,22,04,54,7.30
2017,06,22,04,55,7.30
2017,06,22,04,56,7.30
2017,06,22,04,57,7.30
2017,06,22,04,58,7.30
2017,06,22,04,59,7.40
2017,06,22,05,00,7.40
2017,06,22,05,01,7.40
2017,06,22,05,02,7.50
2017,06,22,05,03,7.50
2017,06,22,05,04,7.60
2017,06,22,05,05,7.60
2017,06,22,05,06,7.70
2017,06,22,05,07,7.70
2017,06,22,05,08,7.60
2017,06,22,05,09,7.60
2017,06,22,05,10,7.60
2017,06,22,05,11,7.60
2017,06,22,05,12,7.60
2017,06,22,05,13,7.60
2017,06,22,05,14,7.60
2017,06,22,05,15,7.50
2017,06,22,05,16,7.50
2017,06,22,05,17,7.50
2017,06,22,05,18,7.50
2017,06,22,05,19,7.50
2017,06,22,05,20,7.50
2017,06,22,05,21,7.50
2017,06,22,05,22,7.40
2017,06,22,05,23,7.40
2017,06,22,05,24,7.40
2017,06,22,05,25,7.40
2017,06,22,05,26,7.40
2017,06,22,05,27,7.40
2017,06,22,05,28,7.40
2017,06,22,05,29,7.40
2017,06,22,05,30,7.40
2017,06,22,05,31,7.40
2017,06,22,05,32,7.40
2017,06,22,05,33,7.40
2017,06,22,05,34,7.40
2017,06,22,05,35,7.40
2017,06,22,05,36,7.40
2017,06,22,05,37,7.40
2017,06,22,05,38,7.40
2017,06,22,05,39,7.40
2017,06,22,05,40,7.40
2017,06,22,05,41,7.30
2017,06,22,05,42,7.30
2017,06,22,05,43,7.30
2017,06,22,05,44,7.30
2017,06,22,05,45,7.30
2017,06,22,05,46,7.30
2017,06,22,05,47,7.20
2017,06,22,05,48,7.30
2017,06,22,05,49,7.30
2017,06,22,05,50,7.30
2017,06,22,05,51,7.30
2017,06,22,05,52,7.30
2017,06,22,05,53,7.30
2017,06,22,05,54,7.30
2017,06,22,05,55,7.30
2017,06,22,05,56,7.30
2017,06,22,05,57,7.30
2017,06,22,05,58,7.40
2017,06,22,05,59,7.40
2017,06,22,06,00,7.40
2017,06,22,06,01,7.40
2017,06,22,06,02,7.40
2017,06,22,06,03,7.40
2017,06,22,06,04,7.40
2017,06,22,06,05,7.40
2017,06,22,06,06,7.40
2017,06,22,06,07,7.40
2017,06,22,06,08,7.50
2017,06,22,06,09,7.40
2017,06,22,06,10,7.50
2017,06,22,06,11,7.40
2017,06,22,06,12,7.40
2017,06,22,06,13,7.40
2017,06,22,06,14,7.40
2017,06,22,06,15,7.40
2017,06,22,06,16,7.40
2017,06,22,06,17,7.40
2017,06,22,06,18,7.40
2017,06,22,06,19,7.40
2017,06,22,06,20,7.50
2017,06,22,06,21,7.50
2017,06,22,06,22,7.50
2017,06,22,06,23,7.50
2017,06,22,06,24,7.60
2017,06,22,06,25,7.60
2017,06,22,06,26,7.60
2017,06,22,06,27,7.60
2017,06,22,06,28,7.70
2017,06,22,06,29,7.70
2017,06,22,06,30,7.70
2017,06,22,06,31,7.80
2017,06,22,06,32,7.80
2017,06,22,06,33,7.80
2017,06,22,06,34,7.80
2017,06,22,06,35,7.90
2017,06,22,06,36,7.90
2017,06,22,06,37,7.90
2017,06,22,06,38,7.90
2017,06,22,06,39,8.00
2017,06,22,06,40,8.00
2017,06,22,06,41,8.10
2017,06,22,06,42,8.10
2017,06,22,06,43,8.20
2017,06,22,06,44,8.20
2017,06,22,06,45,8.20
2017,06,22,06,46,8.20
2017,06,22,06,47,8.30
2017,06,22,06,48,8.40
2017,06,22,06,49,8.40
2017,06,22,06,50,8.50
2017,06,22,06,51,8.60
2017,06,22,06,52,8.60
2017,06,22,06,53,8.70
2017,06,22,06,54,8.80
2017,06,22,06,55,8.90
2017,06,22,06,56,9.00
2017,06,22,06,57,9.00
2017,06,22,06,58,9.10
2017,06,22,06,59,9.20
2017,06,22,07,00,9.20
2017,06,22,07,01,9.20
2017,06,22,07,02,9.30
2017,06,22,07,03,9.30
2017,06,22,07,04,9.30
2017,06,22,07,05,9.30
2017,06,22,07,06,9.30
2017,06,22,07,07,9.30
2017,06,22,07,08,9.30
2017,06,22,07,09,9.40
2017,06,22,07,10,9.40
2017,06,22,07,11,9.40
2017,06,22,07,12,9.50
2017,06,22,07,13,9.50
2017,06,22,07,14,9.60
2017,06,22,07,15,9.60
2017,06,22,07,16,9.70
2017,06,22,07,17,9.70
2017,06,22,07,18,9.70
2017,06,22,07,19,9.70
2017,06,22,07,20,9.70
2017,06,22,07,21,9.70
2017,06,22,07,22,9.70
2017,06,22,07,23,9.70
2017,06,22,07,24,9.70
2017,06,22,07,25,9.80
2017,06,22,07,26,9.80
2017,06,22,07,27,9.90
2017,06,22,07,28,10.00
2017,06,22,07,29,10.10
2017,06,22,07,30,10.10
2017,06,22,07,31,10.20
2017,06,22,07,32,10.30
2017,06,22,07,33,10.30
2017,06,22,07,34,10.40
2017,06,22,07,35,10.50
2017,06,22,07,36,10.60
2017,06,22,07,37,10.70
2017,06,22,07,38,10.70
2017,06,22,07,39,10.80
2017,06,22,07,40,10.80
2017,06,22,07,41,10.90
2017,06,22,07,42,10.90
2017,06,22,07,43,10.90
2017,06,22,07,44,11.00
2017,06,22,07,45,11.00
2017,06,22,07,46,11.10
2017,06,22,07,47,11.10
2017,06,22,07,48,11.10
2017,06,22,07,49,11.20
2017,06,22,07,50,11.20
2017,06,22,07,51,11.30
2017,06,22,07,52,11.30
2017,06,22,07,53,11.30
2017,06,22,07,54,11.30
2017,06,22,07,55,11.30
2017,06,22,07,56,11.30
2017,06,22,07,57,11.40
2017,06,22,07,58,11.40
2017,06,22,07,59,11.40
2017,06,22,08,00,11.50
2017,06,22,08,01,11.50
2017,06,22,08,02,11.60
2017,06,22,08,03,11.70
2017,06,22,08,04,11.80
2017,06,22,08,05,11.90
2017,06,22,08,06,11.90
2017,06,22,08,07,12.00
2017,06,22,08,08,12.00
2017,06,22,08,09,12.10
2017,06,22,08,10,12.10
2017,06,22,08,11,12.20
2017,06,22,08,12,12.30
2017,06,22,08,13,12.30
2017,06,22,08,14,12.40
2017,06,22,08,15,12.50
2017,06,22,08,16,12.50
2017,06,22,08,17,12.60
2017,06,22,08,18,12.60
2017,06,22,08,19,12.70
2017,06,22,08,20,12.80
2017,06,22,08,21,12.90
2017,06,22,08,22,12.90
2017,06,22,08,23,13.00
2017,06,22,08,24,13.10
2017,06,22,08,25,13.20
2017,06,22,08,26,13.30
2017,06,22,08,27,13.40
2017,06,22,08,28,13.50
2017,06,22,08,29,13.50
2017,06,22,08,30,13.50
2017,06,22,08,31,13.50
2017,06,22,08,32,13.60
2017,06,22,08,33,13.60
2017,06,22,08,34,13.60
2017,06,22,08,35,13.70
2017,06,22,08,36,13.80
2017,06,22,08,37,13.90
2017,06,22,08,38,14.00
2017,06,22,08,39,14.10
2017,06,22,08,40,14.20
2017,06,22,08,41,14.30
2017,06,22,08,42,14.40
2017,06,22,08,43,14.50
2017,06,22,08,44,14.60
2017,06,22,08,45,14.70
2017,06,22,08,46,14.80
2017,06,22,08,47,14.80
2017,06,22,08,48,14.80
2017,06,22,08,49,14.90
2017,06,22,08,50,14.90
2017,06,22,08,51,15.00
2017,06,22,08,52,15.00
2017,06,22,08,53,15.10
2017,06,22,08,54,15.10
2017,06,22,08,55,15.10
2017,06,22,08,56,15.20
2017,06,22,08,57,15.20
2017,06,22,08,58,15.20
2017,06,22,08,59,15.20
2017,06,22,09,00,15.20
2017,06,22,09,01,15.10
2017,06,22,09,02,15.10
2017,06,22,09,03,15.10
2017,06,22,09,04,15.00
2017,06,22,09,05,15.00
2017,06,22,09,06,15.00
2017,06,22,09,07,15.00
2017,06,22,09,08,14.90
2017,06,22,09,09,14.90
2017,06,22,09,10,14.90
2017,06,22,09,11,14.90
2017,06,22,09,12,14.90
2017,06,22,09,13,14.80
2017,06,22,09,14,14.70
2017,06,22,09,15,14.70
2017,06,22,09,16,14.60
2017,06,22,09,17,14.50
2017,06,22,09,18,14.50
2017,06,22,09,19,14.40
2017,06,22,09,20,14.40
2017,06,22,09,21,14.40
2017,06,22,09,22,14.50
2017,06,22,09,23,14.50
2017,06,22,09,24,14.60
2017,06,22,09,25,14.60
2017,06,22,09,26,14.60
2017,06,22,09,27,14.60
2017,06,22,09,28,14.60
2017,06,22,09,29,14.60
2017,06,22,09,30,14.70
2017,06,22,09,31,14.80
2017,06,22,09,32,14.90
2017,06,22,09,33,15.00
2017,06,22,09,34,15.20
2017,06,22,09,35,15.20
2017,06,22,09,36,15.20
2017,06,22,09,37,15.20
2017,06,22,09,38,15.20
2017,06,22,09,39,15.20
2017,06,22,09,40,15.20
2017,06,22,09,41,15.20
2017,06,22,09,42,15.30
2017,06,22,09,43,15.30
2017,06,22,09,44,15.40
2017,06,22,09,45,15.50
2017,06,22,09,46,15.50
2017,06,22,09,47,15.60
2017,06,22,09,48,15.70
2017,06,22,09,49,15.60
2017,06,22,09,50,15.60
2017,06,22,09,51,15.70
2017,06,22,09,52,15.70
2017,06,22,09,53,15.80
2017,06,22,09,54,15.80
2017,06,22,09,55,15.80
2017,06,22,09,56,15.80
2017,06,22,09,57,15.90
2017,06,22,09,58,16.00
2017,06,22,09,59,16.10
2017,06,22,10,00,16.20
2017,06,22,10,01,16.20
2017,06,22,10,02,16.30
2017,06,22,10,03,16.40
2017,06,22,10,04,16.50
2017,06,22,10,05,16.60
2017,06,22,10,06,16.70
2017,06,22,10,07,16.90
2017,06,22,10,08,16.90
2017,06,22,10,09,16.90
2017,06,22,10,10,17.00
2017,06,22,10,11,17.00
2017,06,22,10,12,17.10
2017,06,22,10,13,17.10
2017,06,22,10,14,17.10
2017,06,22,10,15,17.00
2017,06,22,10,16,17.00
2017,06,22,10,17,16.90
2017,06,22,10,18,16.90
2017,06,22,10,19,16.80
2017,06,22,10,20,16.80
2017,06,22,10,21,16.80
2017,06,22,10,22,16.80
2017,06,22,10,23,16.60
2017,06,22,10,24,16.50
2017,06,22,10,25,16.40
2017,06,22,10,26,16.30
2017,06,22,10,27,16.30
2017,06,22,10,28,16.30
2017,06,22,10,29,16.30
2017,06,22,10,30,16.20
2017,06,22,10,31,16.20
2017,06,22,10,32,16.20
2017,06,22,10,33,16.20
2017,06,22,10,34,16.30
2017,06,22,10,35,16.30
2017,06,22,10,36,16.30
2017,06,22,10,37,16.40
2017,06,22,10,38,16.40
2017,06,22,10,39,16.40
2017,06,22,10,40,16.50
2017,06,22,10,41,16.60
2017,06,22,10,42,16.70
2017,06,22,10,43,16.80
2017,06,22,10,44,16.80
2017,06,22,10,45,16.90
2017,06,22,10,46,17.00
2017,06,22,10,47,17.10
2017,06,22,10,48,17.10
2017,06,22,10,49,17.10
2017,06,22,10,50,17.10
2017,06,22,10,51,17.00
2017,06,22,10,52,17.00
2017,06,22,10,53,17.00
2017,06,22,10,54,17.00
2017,06,22,10,55,17.00
2017,06,22,10,56,17.00
2017,06,22,10,57,17.00
2017,06,22,10,58,17.00
2017,06,22,10,59,17.00
2017,06,22,11,00,17.00
2017,06,22,11,01,17.10
2017,06,22,11,02,17.10
2017,06,22,11,03,17.00
2017,06,22,11,04,17.00
2017,06,22,11,05,17.00
2017,06,22,11,06,17.00
2017,06,22,11,07,17.00
2017,06,22,11,08,17.10
2017,06,22,11,09,17.20
2017,06,22,11,10,17.30
2017,06,22,11,11,17.30
2017,06,22,11,12,17.30
2017,06,22,11,13,17.30
2017,06,22,11,14,17.30
2017,06,22,11,15,17.30
2017,06,22,11,16,17.30
2017,06,22,11,17,17.20
2017,06,22,11,18,17.20
2017,06,22,11,19,17.10
2017,06,22,11,20,17.00
2017,06,22,11,21,16.90
2017,06,22,11,22,16.70
2017,06,22,11,23,16.70
2017,06,22,11,24,16.60
2017,06,22,11,25,16.60
2017,06,22,11,26,16.60
2017,06,22,11,27,16.60
2017,06,22,11,28,16.70
2017,06,22,11,29,16.70
2017,06,22,11,30,16.80
2017,06,22,11,31,16.80
2017,06,22,11,32,16.90
2017,06,22,11,33,17.00
2017,06,22,11,34,17.00
2017,06,22,11,35,17.10
2017,06,22,11,36,17.20
2017,06,22,11,37,17.20
2017,06,22,11,38,17.30
2017,06,22,11,39,17.30
2017,06,22,11,40,17.30
2017,06,22,11,41,17.30
2017,06,22,11,42,17.40
2017,06,22,11,43,17.50
2017,06,22,11,44,17.60
2017,06,22,11,45,17.70
2017,06,22,11,46,17.80
2017,06,22,11,47,17.90
2017,06,22,11,48,17.90
2017,06,22,11,49,17.90
2017,06,22,11,50,17.90
2017,06,22,11,51,17.90
2017,06,22,11,52,17.90
2017,06,22,11,53,17.90
2017,06,22,11,54,17.90
2017,06,22,11,55,17.80
2017,06,22,11,56,17.80
2017,06,22,11,57,17.70
2017,06,22,11,58,17.70
2017,06,22,11,59,17.60
2017,06,22,12,00,17.60
2017,06,22,12,01,17.60
2017,06,22,12,02,17.50
2017,06,22,12,03,17.60
2017,06,22,12,04,17.60
2017,06,22,12,05,17.60
2017,06,22,12,06,17.60
2017,06,22,12,07,17.70
2017,06,22,12,08,17.70
2017,06,22,12,09,17.70
2017,06,22,12,10,17.70
2017,06,22,12,11,17.70
2017,06,22,12,12,17.70
2017,06,22,12,13,17.70
2017,06,22,12,14,17.70
2017,06,22,12,15,17.70
2017,06,22,12,16,17.70
2017,06,22,12,17,17.70
2017,06,22,12,18,17.70
2017,06,22,12,19,17.70
2017,06,22,12,20,17.60
2017,06,22,12,21,17.60
2017,06,22,12,22,17.60
2017,06,22,12,23,17.60
2017,06,22,12,24,17.60
2017,06,22,12,25,17.60
2017,06,22,12,26,17.70
2017,06,22,12,27,17.70
2017,06,22,12,28,17.80
2017,06,22,12,29,17.80
2017,06,22,12,30,17.90
2017,06,22,12,31,17.90
2017,06,22,12,32,17.90
2017,06,22,12,33,17.90
2017,06,22,12,34,17.90
2017,06,22,12,35,17.80
2017,06,22,12,36,17.80
2017,06,22,12,37,17.70
2017,06,22,12,38,17.60
2017,06,22,12,39,17.60
2017,06,22,12,40,17.70
2017,06,22,12,41,17.80
2017,06,22,12,42,17.90
2017,06,22,12,43,18.10
2017,06,22,12,44,18.20
2017,06,22,12,45,18.30
2017,06,22,12,46,18.40
2017,06,22,12,47,18.40
2017,06,22,12,48,18.40
2017,06,22,12,49,18.40
2017,06,22,12,50,18.50
2017,06,22,12,51,18.50
2017,06,22,12,52,18.60
2017,06,22,12,53,18.60
2017,06,22,12,54,18.60
2017,06,22,12,55,18.60
2017,06,22,12,56,18.60
2017,06,22,12,57,18.70
2017,06,22,12,58,18.70
2017,06,22,12,59,18.70
2017,06,22,13,00,18.70
2017,06,22,13,01,18.70
2017,06,22,13,02,18.70
2017,06,22,13,03,18.70
2017,06,22,13,04,18.70
2017,06,22,13,05,18.70
2017,06,22,13,06,18.70
2017,06,22,13,07,18.70
2017,06,22,13,08,18.70
2017,06,22,13,09,18.60
2017,06,22,13,10,18.60
2017,06,22,13,11,18.60
2017,06,22,13,12,18.60
2017,06,22,13,13,18.70
2017,06,22,13,14,18.70
2017,06,22,13,15,18.80
2017,06,22,13,16,18.80
2017,06,22,13,17,18.90
2017,06,22,13,18,18.90
2017,06,22,13,19,18.90
2017,06,22,13,20,18.90
2017,06,22,13,21,18.90
2017,06,22,13,22,18.80
2017,06,22,13,23,18.80
2017,06,22,13,24,18.70
2017,06,22,13,25,18.70
2017,06,22,13,26,18.60
2017,06,22,13,27,18.60
2017,06,22,13,28,18.50
2017,06,22,13,29,18.50
2017,06,22,13,30,18.40
2017,06,22,13,31,18.40
2017,06,22,13,32,18.40
2017,06,22,13,33,18.40
2017,06,22,13,34,18.40
2017,06,22,13,35,18.30
2017,06,22,13,36,18.30
2017,06,22,13,37,18.30
2017,06,22,13,38,18.30
2017,06,22,13,39,18.20
2017,06,22,13,40,18.00
2017,06,22,13,41,17.90
2017,06,22,13,42,17.90
2017,06,22,13,43,17.80
2017,06,22,13,44,17.80
2017,06,22,13,45,17.80
2017,06,22,13,46,17.80
2017,06,22,13,47,17.90
2017,06,22,13,48,17.90
2017,06,22,13,49,18.00
2017,06,22,13,50,18.00
2017,06,22,13,51,18.00
2017,06,22,13,52,18.10
2017,06,22,13,53,18.10
2017,06,22,13,54,18.10
2017,06,22,13,55,18.10
2017,06,22,13,56,18.10
2017,06,22,13,57,18.10
2017,06,22,13,58,18.10
2017,06,22,13,59,18.10
2017,06,22,14,00,18.10
2017,06,22,14,01,18.10
2017,06,22,14,02,18.00
2017,06,22,14,03,18.00
2017,06,22,14,04,18.00
2017,06,22,14,05,17.90
2017,06,22,14,06,17.90
2017,06,22,14,07,17.80
2017,06,22,14,08,17.80
2017,06,22,14,09,17.80
2017,06,22,14,10,17.90
2017,06,22,14,11,18.00
2017,06,22,14,12,18.10
2017,06,22,14,13,18.20
2017,06,22,14,14,18.30
2017,06,22,14,15,18.50
2017,06,22,14,16,18.60
2017,06,22,14,17,18.60
2017,06,22,14,18,18.60
2017,06,22,14,19,18.50
2017,06,22,14,20,18.50
2017,06,22,14,21,18.40
2017,06,22,14,22,18.50
2017,06,22,14,23,18.60
2017,06,22,14,24,18.70
2017,06,22,14,25,18.70
2017,06,22,14,26,18.80
2017,06,22,14,27,18.80
2017,06,22,14,28,18.80
2017,06,22,14,29,18.80
2017,06,22,14,30,18.80
2017,06,22,14,31,18.80
2017,06,22,14,32,18.80
2017,06,22,14,33,18.80
2017,06,22,14,34,18.80
2017,06,22,14,35,18.80
2017,06,22,14,36,18.80
2017,06,22,14,37,18.80
2017,06,22,14,38,18.90
2017,06,22,14,39,18.90
2017,06,22,14,40,19.00
2017,06,22,14,41,19.10
2017,06,22,14,42,19.10
2017,06,22,14,43,19.10
2017,06,22,14,44,19.10
2017,06,22,14,45,19.10
2017,06,22,14,46,19.10
2017,06,22,14,47,19.00
2017,06,22,14,48,19.00
2017,06,22,14,49,19.00
2017,06,22,14,50,19.00
2017,06,22,14,51,19.10
2017,06,22,14,52,19.10
2017,06,22,14,53,19.20
2017,06,22,14,54,19.30
2017,06,22,14,55,19.40
2017,06,22,14,56,19.40
2017,06,22,14,57,19.50
2017,06,22,14,58,19.60
2017,06,22,14,59,19.60
2017,06,22,15,00,19.60
2017,06,22,15,01,19.60
2017,06,22,15,02,19.50
2017,06,22,15,03,19.40
2017,06,22,15,04,19.20
2017,06,22,15,05,19.00
2017,06,22,15,06,18.90
2017,06,22,15,07,18.70
2017,06,22,15,08,18.50
2017,06,22,15,09,18.40
2017,06,22,15,10,18.20
2017,06,22,15,11,18.10
2017,06,22,15,12,18.00
2017,06,22,15,13,18.00
2017,06,22,15,14,17.90
2017,06,22,15,15,18.00
2017,06,22,15,16,18.00
2017,06,22,15,17,18.10
2017,06,22,15,18,18.20
2017,06,22,15,19,18.20
2017,06,22,15,20,18.20
2017,06,22,15,21,18.20
2017,06,22,15,22,18.20
2017,06,22,15,23,18.20
2017,06,22,15,24,18.20
2017,06,22,15,25,18.30
2017,06,22,15,26,18.30
2017,06,22,15,27,18.40
2017,06,22,15,28,18.50
2017,06,22,15,29,18.60
2017,06,22,15,30,18.60
2017,06,22,15,31,18.70
2017,06,22,15,32,18.70
2017,06,22,15,33,18.80
2017,06,22,15,34,18.80
2017,06,22,15,35,18.90
2017,06,22,15,36,19.00
2017,06,22,15,37,19.10
2017,06,22,15,38,19.10
2017,06,22,15,39,19.20
2017,06,22,15,40,19.10
2017,06,22,15,41,19.10
2017,06,22,15,42,19.10
2017,06,22,15,43,19.00
2017,06,22,15,44,18.90
2017,06,22,15,45,18.90
2017,06,22,15,46,18.80
2017,06,22,15,47,18.80
2017,06,22,15,48,18.80
2017,06,22,15,49,18.90
2017,06,22,15,50,18.90
2017,06,22,15,51,19.00
2017,06,22,15,52,19.00
2017,06,22,15,53,19.10
2017,06,22,15,54,19.20
2017,06,22,15,55,19.30
2017,06,22,15,56,19.30
2017,06,22,15,57,19.40
2017,06,22,15,58,19.40
2017,06,22,15,59,19.40
2017,06,22,16,00,19.40
2017,06,22,16,01,19.40
2017,06,22,16,02,19.30
2017,06,22,16,03,19.30
2017,06,22,16,04,19.40
2017,06,22,16,05,19.40
2017,06,22,16,06,19.50
2017,06,22,16,07,19.50
2017,06,22,16,08,19.60
2017,06,22,16,09,19.70
2017,06,22,16,10,19.80
2017,06,22,16,11,19.80
2017,06,22,16,12,19.90
2017,06,22,16,13,19.90
2017,06,22,16,14,19.80
2017,06,22,16,15,19.80
2017,06,22,16,16,19.80
2017,06,22,16,17,19.80
2017,06,22,16,18,19.80
2017,06,22,16,19,19.80
2017,06,22,16,20,19.80
2017,06,22,16,21,19.80
2017,06,22,16,22,19.80
2017,06,22,16,23,19.90
2017,06,22,16,24,19.80
2017,06,22,16,25,19.80
2017,06,22,16,26,19.80
2017,06,22,16,27,19.80
2017,06,22,16,28,19.80
2017,06,22,16,29,19.70
2017,06,22,16,30,19.70
2017,06,22,16,31,19.70
2017,06,22,16,32,19.80
2017,06,22,16,33,19.80
2017,06,22,16,34,19.80
2017,06,22,16,35,19.90
2017,06,22,16,36,20.00
2017,06,22,16,37,20.10
2017,06,22,16,38,20.20
2017,06,22,16,39,20.30
2017,06,22,16,40,20.40
2017,06,22,16,41,20.40
2017,06,22,16,42,20.40
2017,06,22,16,43,20.30
2017,06,22,16,44,20.40
2017,06,22,16,45,20.40
2017,06,22,16,46,20.40
2017,06,22,16,47,20.40
2017,06,22,16,48,20.50
2017,06,22,16,49,20.50
2017,06,22,16,50,20.60
2017,06,22,16,51,20.70
2017,06,22,16,52,20.70
2017,06,22,16,53,20.80
2017,06,22,16,54,20.90
2017,06,22,16,55,21.00
2017,06,22,16,56,21.00
2017,06,22,16,57,21.10
2017,06,22,16,58,21.00
2017,06,22,16,59,20.90
2017,06,22,17,00,20.80
2017,06,22,17,01,20.80
2017,06,22,17,02,20.80
2017,06,22,17,03,20.80
2017,06,22,17,04,20.80
2017,06,22,17,05,20.80
2017,06,22,17,06,20.80
2017,06,22,17,07,20.80
2017,06,22,17,08,20.80
2017,06,22,17,09,20.80
2017,06,22,17,10,20.80
2017,06,22,17,11,20.80
2017,06,22,17,12,20.80
2017,06,22,17,13,20.80
2017,06,22,17,14,20.80
2017,06,22,17,15,20.80
2017,06,22,17,16,20.80
2017,06,22,17,17,20.80
2017,06,22,17,18,20.80
2017,06,22,17,19,20.80
2017,06,22,17,20,20.90
2017,06,22,17,21,20.90
2017,06,22,17,22,20.80
2017,06,22,17,23,20.80
2017,06,22,17,24,20.70
2017,06,22,17,25,20.70
2017,06,22,17,26,20.70
2017,06,22,17,27,20.70
2017,06,22,17,28,20.70
2017,06,22,17,29,20.60
2017,06,22,17,30,20.60
2017,06,22,17,31,20.50
2017,06,22,17,32,20.40
2017,06,22,17,33,20.40
2017,06,22,17,34,20.30
2017,06,22,17,35,20.20
2017,06,22,17,36,20.20
2017,06,22,17,37,20.20
2017,06,22,17,38,20.20